STARLINK P (44248 NORAD) Tracking and Keplerian Element Data

This shows tracking and keplerian element data for the satellite.

Feedback or suggestion? Click here.




ElementValue
Catalog44248
NameSTARLINK P
Epoch Orbit303
Epoch Day173.900687
Epoch Year2019
RAAN37.6649
Inclination52.9997
Eccentricity0.0002262
Argument of Perigee95.5238
Mean Anonmoly264.6008
Mean Motion15.05411499
Decay Rate-0.00011183
L11 44248U 19029P 19173.90068700 -.00011183 00000-0 -75292-3 0 9998
L22 44248 52.9997 37.6649 0002262 95.5238 264.6008 15.05411499 3035

Live tracking and technical data element details for STARLINK P (NORAD 44248). STARLINK P can be tracked NOW for your location showing map with azimuth and elevation plus other details from your city location.

Track the satellite on the map from your city or location and see movement details for azimuth, elevation, latitude, longitude, range, height, and movement on the map or in text.







IsCatalogInMostPopularTable: catalog: 44248, numindb: 28
Update: records affected: 1



GetName: 44248 STARLINK P

Hit Count: updated at: Wed, 17 Jul 2019 08:26:52 GMT